Jackson, WY

9:29 PM MDT on May 23, 2018 (GMT -0600)
Jackson Hole

Weather History for KJAC - May, 2013

Change the Weather History Date:

Monday, May 20, 2013

  Actual Average Record
Temperature  
Mean Temperature 48 °F -  
Max Temperature 59 °F 63 °F 78 °F (1992)
Min Temperature 37 °F 32 °F 17 °F (2003)
Degree Days  
Heating Degree Days 17    
Moisture  
Dew Point 37 °F    
Average Humidity 72    
Maximum Humidity 93    
Minimum Humidity 39    
Precipitation  
Precipitation 0.01 in - - ()
Sea Level Pressure  
Sea Level Pressure 30.14 in    
Wind  
Wind Speed 6 mph (NNW)    
Max Wind Speed 18 mph    
Max Gust Speed 26 mph    
Visibility 10 miles    
Events      
Averages and records for this station are not official NWS values.
T = Trace of Precipitation, MM = Missing Value Source: NWS Daily Summary

Daily Weather History Graph

Daily Weather History Graph

Search for Another Location

Airport or City:

Astronomy

May. 20, 2013 Rise Set
Actual Time 5:52 AM MDT 8:46 PM MDT
Civil Twilight 5:19 AM MDT 9:20 PM MDT
Nautical Twilight 4:36 AM MDT 10:03 PM MDT
Astronomical Twilight 3:46 AM MDT 10:54 PM MDT
Moon 3:50 PM MDT (5/20) 2:58 AM MDT (5/20)
Length of Visible Light 16h 01m
Length of Day
14h 54m
Waxing Gibbous, 75% of the Moon is Illuminated
May 20
Waxing Gibbous
May 24
Full
May 31
Last Quarter
Jun 8
New
Jun 16
First Quarter

Hourly Weather History & Observations

Time (MDT) Temp. Windchill Dew Point Humidity Pressure Visibility Wind Dir Wind Speed Gust Speed Precip Events Conditions
12:15 AM 44.6 °F 41.4 °F 37.4 °F 76% 30.10 in 10.0 mi NNE 5.8 mph - N/A   Overcast
12:35 AM 44.6 °F 41.4 °F 37.4 °F 76% 30.10 in 10.0 mi North 5.8 mph - N/A   Overcast
12:55 AM 42.8 °F 39.3 °F 37.4 °F 81% 30.10 in 10.0 mi North 5.8 mph - N/A   Overcast
1:15 AM 42.8 °F 38.6 °F 37.4 °F 81% 30.10 in 10.0 mi North 6.9 mph - N/A   Overcast
1:35 AM 42.8 °F 38.6 °F 37.4 °F 81% 30.10 in 10.0 mi NNW 6.9 mph - N/A   Overcast
1:55 AM 42.8 °F 38.0 °F 37.4 °F 81% 30.10 in 10.0 mi North 8.1 mph - N/A   Overcast
2:15 AM 42.8 °F 40.1 °F 37.4 °F 81% 30.10 in 10.0 mi North 4.6 mph - N/A   Overcast
2:35 AM 42.8 °F 37.5 °F 37.4 °F 81% 30.10 in 10.0 mi NNW 9.2 mph - N/A   Overcast
2:55 AM 42.8 °F 40.1 °F 37.4 °F 81% 30.10 in 10.0 mi NW 4.6 mph - N/A   Overcast
3:15 AM 41.0 °F 38.0 °F 37.4 °F 87% 30.11 in 10.0 mi NW 4.6 mph - N/A   Overcast
3:35 AM 39.2 °F - 37.4 °F 93% 30.11 in 10.0 mi Calm Calm - N/A   Overcast
3:55 AM 39.2 °F 35.0 °F 35.6 °F 87% 30.11 in 10.0 mi North 5.8 mph - N/A   Scattered Clouds
4:15 AM 39.2 °F 37.0 °F 35.6 °F 87% 30.12 in 10.0 mi NW 3.5 mph - N/A   Mostly Cloudy
4:35 AM 37.4 °F 32.1 °F 35.6 °F 93% 30.12 in 10.0 mi NW 6.9 mph - N/A   Overcast
4:55 AM 39.2 °F 35.0 °F 35.6 °F 87% 30.12 in 10.0 mi NNW 5.8 mph - N/A   Overcast
5:15 AM 39.2 °F 37.0 °F 35.6 °F 87% 30.13 in 10.0 mi NW 3.5 mph - N/A   Overcast
5:35 AM 39.2 °F - 37.4 °F 93% 30.13 in 10.0 mi Calm Calm - N/A   Overcast
5:55 AM 39.2 °F - 37.4 °F 93% 30.14 in 10.0 mi Calm Calm - N/A   Overcast
6:15 AM 39.2 °F 37.0 °F 35.6 °F 87% 30.15 in 10.0 mi NW 3.5 mph - N/A   Overcast
6:51 AM 41.0 °F 37.1 °F 37.4 °F 87% 30.16 in 10.0 mi NW 5.8 mph - N/A   Mostly Cloudy
7:51 AM 44.6 °F - 37.4 °F 76% 30.16 in 10.0 mi Calm Calm - N/A   Scattered Clouds
8:51 AM 46.4 °F - 39.2 °F 76% 30.17 in 10.0 mi Calm Calm - N/A   Mostly Cloudy
9:52 AM 51.8 °F - 39.2 °F 62% 30.17 in 10.0 mi North 10.4 mph - N/A   Mostly Cloudy
10:52 AM 51.8 °F - 37.4 °F 58% 30.16 in 10.0 mi NNE 15.0 mph 19.6 mph N/A   Mostly Cloudy
11:54 AM 53.6 °F - 35.6 °F 51% 30.16 in 10.0 mi North 16.1 mph 21.9 mph N/A   Mostly Cloudy
12:51 PM 55.4 °F - 35.6 °F 47% 30.16 in 10.0 mi NNE 18.4 mph 26.5 mph N/A   Mostly Cloudy
1:53 PM 53.6 °F - 35.6 °F 51% 30.17 in 10.0 mi NNW 12.7 mph - N/A   Mostly Cloudy
2:58 PM 55.4 °F - 33.8 °F 44% 30.15 in 10.0 mi West 10.4 mph - N/A   Scattered Clouds
3:51 PM 59.0 °F - 33.8 °F 39% 30.13 in 10.0 mi North 12.7 mph 20.7 mph N/A   Scattered Clouds
4:55 PM 59.0 °F - 33.8 °F 39% 30.12 in 10.0 mi North 12.7 mph 19.6 mph N/A   Scattered Clouds
5:51 PM 57.2 °F - 35.6 °F 44% 30.13 in 10.0 mi WNW 9.2 mph - N/A   Mostly Cloudy
6:59 PM 53.6 °F - 35.6 °F 51% 30.12 in 10.0 mi West 11.5 mph - N/A   Partly Cloudy
7:51 PM 53.6 °F - 35.6 °F 51% 30.13 in 10.0 mi West 10.4 mph - N/A   Mostly Cloudy
8:51 PM 51.8 °F - 35.6 °F 54% 30.15 in 10.0 mi NNW 9.2 mph - N/A   Mostly Cloudy
8:55 PM 50.0 °F - 37.4 °F 62% 30.16 in 10.0 mi North 6.9 mph - N/A   Overcast
9:15 PM 48.2 °F - 37.4 °F 66% 30.16 in 10.0 mi North 3.5 mph - N/A   Overcast
9:35 PM 48.2 °F - 39.2 °F 71% 30.17 in 10.0 mi Calm Calm - N/A   Overcast
9:55 PM 48.2 °F - 39.2 °F 71% 30.17 in 10.0 mi Calm Calm - N/A   Mostly Cloudy
10:35 PM 46.4 °F 45.2 °F 39.2 °F 76% 30.17 in 10.0 mi NNW 3.5 mph - N/A   Overcast
10:55 PM 46.4 °F 45.2 °F 37.4 °F 71% 30.16 in 10.0 mi North 3.5 mph - N/A   Scattered Clouds
11:15 PM 42.8 °F - 39.2 °F 87% 30.17 in 10.0 mi Calm Calm - N/A   Clear
11:35 PM 44.6 °F 41.4 °F 37.4 °F 76% 30.16 in 10.0 mi North 5.8 mph - N/A   Clear
11:55 PM 39.2 °F 35.9 °F 37.4 °F 93% 30.16 in 10.0 mi NNW 4.6 mph - N/A   Clear